Regional Weather Roundup
Issued by NWS Bismarck, ND

Home | Current Version | Previous Version | Text Only | Print | Product List | Glossary On
Versions: 1 2 3 4 5 6 7 8 9 10 11 12 13 14 15 16 17 18 19 20 21 22 23 24 25 26 27 28 29 30 31 32 33 34 35 36 37 38 39 40 41 42 43 44 45 46 47 48 49 50
000
ASUS43 KBIS 161910
RWRBIS

NWR BROADCAST TEXT
NATIONAL WEATHER SERVICE BISMARCK ND
100 PM CST MON JAN 16 2017

NOTE: "FAIR" INDICATES FEW OR NO CLOUDS BELOW 12,000 FEET WITH NO
SIGNIFICANT WEATHER AND/OR OBSTRUCTIONS TO VISIBILITY.


CITY           SKY/WX    TMP DP  RH WIND       PRES   REMARKS
WILLISTON      FAIR      16   9  74 SW8       30.12F WCI   5
MINOT          FAIR      27  20  75 W9        30.04F WCI  18
MINOT AFB      NOT AVBL
BISMARCK       FAIR      23  11  60 NW7       30.07F WCI  15
DICKINSON      FAIR      19  12  74 W13       30.05F WCI   6
GARRISON         N/A     20  13  74 NW8       30.05F WCI  10
HETTINGER ARPT FAIR      21  13  71 NW12      30.07F WCI   9
JAMESTOWN      FAIR      17  10  74 SW5       30.03F WCI  10
CARRINGTON     FAIR      18  12  79 W9        30.04F WCI   6
HAZEN            N/A    N/A N/A N/A SW9       30.09F
RUGBY            N/A     12   9  85 NW5       30.03F WCI   4
STANLEY        FAIR      18  14  86 SW5       30.08F WCI  11
TIOGA          FAIR      18  16  93 W12       30.09F WCI   5
WATFORD CITY   FAIR      16  10  79 SW7       30.12S WCI   6
$$

CITY           SKY/WX    TMP DP  RH WIND       PRES   REMARKS
GRAND FORKS    FAIR      18  10  71 SW6       30.05F WCI  10
GRAND FORKS AF FAIR      21  10  60 W3        30.04F
DEVILS LAKE    FAIR      14   9  80 NW7       30.02F WCI   4
FARGO          FAIR      18  10  71 S3        30.07F
CAVALIER         N/A     21  10  63 CALM      30.02F
GRAFTON        FAIR      18   9  68 CALM      30.05F
GWINNER        FAIR      21  14  73 W7        30.06F WCI  13
ROLLA            N/A    N/A N/A N/A MISG        N/A
$$

CITY           SKY/WX    TMP DP  RH WIND       PRES   REMARKS
ABERDEEN       FAIR      22   6  50 NW3       30.07F
MOBRIDGE       FAIR      15   5  64 NW7       30.05F WCI   5
BUFFALO          N/A     22  13  68 W14       30.01F WCI   9
RAPID CITY     FAIR      34  19  54 N12       30.06F
GLASGOW        FAIR      13   6  74 CALM      30.11F
SIDNEY         FAIR      14   8  77 S8        30.14F WCI   3
WOLF POINT     FAIR      16   8  71 SW9       30.15F WCI   4
GLENDIVE       FAIR      17   6  62 S5        30.14F WCI  10
MILES CITY     FAIR      12   4  70 SW6       30.15F WCI   3
BAKER          FAIR      18   9  68 NW9       30.11F WCI   7
$$

CITY           SKY/WX    TMP DP  RH WIND       PRES   REMARKS
BILLINGS       FAIR      23   8  52 SW15      30.13F WCI  10
GREAT FALLS    FAIR      30  16  56 S18       30.06F WCI  18
REGINA         MOSUNNY   21  16  79 S5        30.04F WCI  15
$$




USA.gov is the U.S. government's official web portal to all federal, state and local government web resources and services.